Flag for Russia Weather past 2 weeks in Kaliningrad, Russia

34 °F

Partly sunny.

Feels Like: 29 °F
Forecast: 32 / 38 °F
Wind: 6 mph from South

Location: Kaliningrad/Khrabrovo Airport

Current Time: Nov 26, 2015 at 6:44:14 PM

Latest Report: Nov 26, 2015 at 6:00 PM

Visibility: 4 mi

Pressure: 30.01 "Hg

Humidity: 87%

Dew point: 30 °F

Location of KaliningradLocation

Historic Weather in Kaliningrad — Graph


Kaliningrad temperature yesterday

Maximum temperature yesterday: 36 °F (at 1:30 PM)
Minimum temperature yesterday: 27 °F (at 8:00 AM)
Average temperature yesterday: 32 °F

Past Weeks' High & Low Weather Summary

High55 °F (Nov 18, 11:30 AM)100% (Nov 17, 2:00 AM)30.18 "Hg (Nov 17, 2:00 AM)
Low27 °F (Nov 25, 8:00 AM)66% (Nov 21, 2:30 PM)29.27 "Hg (Nov 18, 8:00 AM)
Average42 °F88%29.72 "Hg
* Reported Nov 11 5:00 PM — Nov 26 5:00 PM, Kaliningrad, Weather by CustomWeather, © 2015

Note: Actual official high and low records may vary slightly from our data, if they occured in-between our weather recording intervals... More about our weather records


Kaliningrad weather history for previous 24 hours

Time TempWeatherWind HumidityBarometerVisibility
5:00 PM
Thu, Nov 26
34 °FPartly sunny.6 mph87%29.98 "Hg4 mi
4:30 PM34 °FPartly sunny.6 mph87%29.98 "Hg4 mi
4:00 PM34 °FPartly sunny.6 mph87%29.98 "Hg4 mi
3:30 PM34 °FPartly sunny.8 mph87%29.95 "Hg4 mi
3:00 PM36 °FPartly sunny.8 mph81%29.95 "Hg4 mi
2:30 PM36 °FPartly sunny.8 mph81%29.95 "Hg4 mi
2:00 PM36 °FPartly sunny.6 mph81%29.95 "Hg4 mi
1:30 PM34 °FPartly sunny.8 mph87%29.95 "Hg4 mi
1:00 PM34 °FPartly sunny.8 mph87%29.92 "Hg4 mi
12:00 PM34 °FPartly sunny.6 mph87%29.92 "Hg4 mi
11:30 AM34 °FPartly sunny.6 mph87%29.89 "Hg4 mi
11:00 AM34 °FPartly sunny.8 mph81%29.89 "Hg4 mi
10:30 AM32 °FPartly sunny.6 mph87%29.89 "Hg4 mi
10:00 AM32 °FPassing clouds.6 mph87%29.86 "Hg4 mi
9:30 AM32 °FPassing clouds.8 mph87%29.86 "Hg4 mi
9:00 AM32 °FPassing clouds.6 mph87%29.86 "Hg4 mi
8:30 AM32 °FPassing clouds.8 mph87%29.83 "Hg4 mi
8:00 AM32 °FPassing clouds.6 mph87%29.83 "Hg4 mi
7:30 AM32 °FPassing clouds.6 mph87%29.83 "Hg5 mi
7:00 AM32 °FPassing clouds.8 mph87%29.80 "Hg5 mi
6:30 AM32 °FPassing clouds.6 mph87%29.80 "Hg5 mi
6:00 AM32 °FPassing clouds.8 mph87%29.80 "HgN/A
5:30 AM32 °FPassing clouds.8 mph87%29.80 "HgN/A
5:00 AM32 °FPassing clouds.8 mph87%29.77 "HgN/A
4:30 AM32 °FPassing clouds.8 mph87%29.77 "HgN/A
4:00 AM32 °FPassing clouds.8 mph87%29.77 "HgN/A
3:00 AM32 °FPassing clouds.8 mph87%29.77 "HgN/A
2:00 AM32 °FPassing clouds.10 mph87%29.77 "HgN/A
1:00 AM32 °FPassing clouds.10 mph87%29.77 "HgN/A
12:00 AM32 °FPassing clouds.8 mph87%29.77 "HgN/A
11:00 PM
Wed, Nov 25
32 °FPassing clouds.10 mph80%29.77 "HgN/A
10:30 PM32 °FPassing clouds.10 mph80%29.77 "HgN/A
10:00 PM32 °FPassing clouds.10 mph80%29.77 "HgN/A
9:30 PM32 °FPassing clouds.13 mph80%29.77 "HgN/A
9:00 PM32 °FClear.13 mph80%29.77 "Hg10 mi
8:30 PM32 °FPassing clouds.10 mph80%29.77 "HgN/A
8:00 PM32 °FPassing clouds.10 mph80%29.77 "HgN/A
7:30 PM32 °FPassing clouds.10 mph80%29.77 "HgN/A
7:00 PM32 °FClear.13 mph80%29.77 "Hg10 mi
6:30 PM32 °FClear.13 mph80%29.77 "Hg10 mi
6:00 PM32 °FSunny.10 mph80%29.77 "Hg10 mi
Weather by CustomWeather, © 2015

See weather overviewHow to use our weather pages